Location: Rounton
(54.4000°N, 1.3500°W)
Time: 07:07:37
(UTC+00:00)

Vanguard 1 - Pass Details

Date: 06 December 2021
Orbit: 652 x 3830 km, 34.2° (Epoch: 16 January)

Event Time Altitude Azimuth Distance (km) Brightness Sun altitude
Rises 01:09:14 0° 243° (WSW) 7,526 - -55.3°
Reaches altitude 10° 01:14:30 10° 237° (WSW) 6,730 - -54.9°
Maximum altitude 01:34:53 42° 177° (S) 4,673 - -53.1°
Exits shadow 01:42:39 33° 142° (SE) 4,800 13.3 -52.4°
Drops below altitude 10° 01:52:18 10° 116° (ESE) 5,819 14.1 -51.4°
Sets 01:56:25 0° 110° (ESE) 6,471 14.5 -51.0°
